EST,Max TemperatureF,Mean TemperatureF,Min TemperatureF,Max Dew PointF,MeanDew PointF,Min DewpointF,Max Humidity, Mean Humidity, Min Humidity, Max Sea Level PressureIn, Mean Sea Level PressureIn, Min Sea Level PressureIn, Max VisibilityMiles, Mean VisibilityMiles, Min VisibilityMiles, Max Wind SpeedMPH, Mean Wind SpeedMPH, Max Gust SpeedMPH,PrecipitationIn, CloudCover, Events, WindDirDegrees
2012-11-1,57,52,46,46,41,36,93,71,47,29.76,29.71,29.68,10,10,10,10,5,,0.00,4,,266
2012-11-2,59,52,44,46,36,30,93,55,34,29.91,29.80,29.75,10,10,10,21,7,30,0.00,3,Rain,293
2012-11-3,51,48,46,34,31,28,62,51,44,30.07,30.00,29.92,10,10,10,17,12,31,0.00,6,,318
2012-11-4,53,45,37,37,34,30,87,65,44,30.10,30.05,30.00,10,10,10,17,6,20,0.00,4,,341
2012-11-5,46,39,32,34,31,28,93,68,50,30.16,30.08,30.01,10,10,10,15,6,23,0.00,3,,9
2012-11-6,51,42,33,43,33,25,87,67,50,30.16,30.07,29.89,10,10,10,13,7,18,0.01,3,Rain,9
2012-11-7,48,44,41,41,38,36,87,80,66,29.89,29.83,29.79,10,9,4,17,11,28,0.29,8,Rain,349
2012-11-8,53,46,39,37,29,19,87,52,26,30.02,29.91,29.85,10,10,7,24,12,33,0.00,3,Rain,322
2012-11-9,53,46,39,37,34,30,93,62,44,30.25,30.16,30.03,10,10,5,16,9,24,0.00,0,,319
2012-11-10,66,52,37,48,40,34,93,68,32,30.41,30.33,30.24,10,9,5,8,3,,0.00,0,,172
2012-11-11,68,60,51,54,48,39,88,69,37,30.51,30.46,30.41,10,10,2,8,7,,0.00,0,,163
2012-11-12,73,65,57,61,58,52,94,81,53,30.47,30.36,30.22,10,9,2,13,7,20,0.00,1,,158
2012-11-13,64,54,44,61,46,34,94,82,62,30.42,30.31,30.17,10,9,3,17,9,26,0.23,8,Rain,349
2012-11-14,50,44,39,36,32,30,76,64,47,30.48,30.44,30.38,10,10,10,13,8,20,0.00,2,,5
2012-11-15,55,50,44,43,39,36,81,70,54,30.38,30.31,30.27,10,10,10,18,8,25,0.00,4,Rain,37
2012-11-16,51,43,35,43,35,28,93,70,47,30.40,30.31,30.24,10,10,10,12,6,20,0.09,6,Rain,355
2012-11-17,57,46,35,45,38,28,87,71,54,30.53,30.49,30.39,10,10,10,18,7,23,0.00,1,,25
2012-11-18,59,52,46,46,45,43,87,74,59,30.51,30.46,30.38,10,10,10,26,13,34,0.00,2,,43
2012-11-19,55,53,51,50,47,45,82,78,72,30.37,30.27,30.17,10,10,10,20,11,24,0.00,8,,13
2012-11-20,57,50,44,46,45,41,93,80,63,30.17,30.12,30.08,10,9,7,13,6,18,0.00,4,,13
2012-11-21,59,49,39,45,41,37,93,77,51,30.19,30.14,30.09,10,9,3,12,6,17,0.00,1,,14
2012-11-22,60,50,41,46,42,37,93,76,59,30.22,30.17,30.14,10,9,0,12,8,18,0.00,1,Fog,8
2012-11-23,62,48,35,52,41,28,100,75,27,30.14,29.96,29.76,10,6,0,16,4,21,0.00,4,Fog,227
2012-11-24,55,47,39,43,24,18,63,45,37,30.06,29.93,29.79,10,10,10,22,15,32,0.00,3,,325
2012-11-25,44,40,35,28,23,18,65,50,39,30.12,30.05,29.99,10,10,10,15,10,22,0.00,0,,261
2012-11-26,55,46,37,41,31,23,93,60,29,30.23,30.16,30.02,10,10,7,10,5,,0.00,0,,160
2012-11-27,57,49,41,46,43,37,93,80,51,30.21,30.17,30.09,10,9,7,14,7,24,0.15,7,Rain,203
2012-11-28,46,38,30,37,32,27,93,74,46,30.38,30.28,30.19,10,9,7,18,8,24,0.00,3,,339
2012-11-29,48,38,28,36,29,23,93,72,37,30.48,30.41,30.37,10,10,7,10,3,,0.00,0,,254
2012-11-30,59,46,33,43,37,30,93,74,39,30.40,30.36,30.31,10,9,3,12,5,16,0.00,0,,190